Terug naar catalogus

STARLINK-4777

ActiefCommunicatieVLEO
NORAD 53847·PAYLOAD·🇺🇸 United States

Gelanceerd Sep 19, 2022 vanaf Cape Canaveral Space Force Station

Loading…

Volgende Passages (komende 24 uur)

TLE

VersSource: CelesTrak SupGP

Epoch: Sep 15, 2026, 02:48 UTC

1 53847C 22114AF  26258.11715278  .00011522  00000+0  72256-3 0  2585
2 53847  53.1584 163.0500 0001628  85.8873 131.8896 15.08827175    17

Volg STARLINK-4777 in realtime met AllMySat

Download on the App Store